User: anonymous   Login
Location: Unspecified
(0.0000°N, 0.0000°E)
Time: 23:56:23
(UTC+00:00)
Language:

STARLINK-5554 - Orbit

View from above orbital plane
View from above orbital plane
View from above satellite
View from above satellite

Ground track
Ground track

The orbit is defined by the following mean orbital elements,

1 56338U          26144.96506124 +.00000000 +00000-0 -32582-4 0 00003
2 56338  97.4473 144.9626 0002619 110.5082 249.6426 15.05658073    01
Epoch (UTC): 24 May 2026 23:09:41
Eccentricity: 0.0002619
inclination: 97.4473°
perigee height: 548 km
apogee height: 551 km
right ascension of ascending node: 144.9626°
argument of perigee: 110.5082°
revolutions per day: 15.05658073
mean anomaly at epoch: 249.6426°

The dashed part of the orbit path shows where the satellite is in the earth's shadow,  

DLR